TimePDT,TemperatureF,Dew PointF,Humidity,Sea Level PressureIn,VisibilityMPH,Wind Direction,Wind SpeedMPH,Gust SpeedMPH,PrecipitationIn,Events,Conditions,WindDirDegrees,DateUTC
12:56 AM,55.9,46.9,72,29.85,10.0,Variable,4.6,-,0.00,Rain,Light Rain,0,2013-05-29 07:56:00
1:56 AM,55.0,46.0,72,29.85,10.0,Calm,Calm,-,0.00,,Overcast,0,2013-05-29 08:56:00
2:56 AM,52.0,42.1,69,29.82,10.0,Calm,Calm,-,N/A,,Mostly Cloudy,0,2013-05-29 09:56:00
3:56 AM,48.0,42.1,80,29.83,10.0,Calm,Calm,-,N/A,,Partly Cloudy,0,2013-05-29 10:56:00
4:56 AM,46.0,39.0,76,29.86,10.0,NE,3.5,-,N/A,,Mostly Cloudy,50,2013-05-29 11:56:00
5:56 AM,48.0,36.0,63,29.86,10.0,Calm,Calm,-,N/A,,Overcast,0,2013-05-29 12:56:00
6:56 AM,51.1,35.1,54,29.89,10.0,Variable,3.5,-,N/A,,Partly Cloudy,0,2013-05-29 13:56:00
7:56 AM,55.0,35.1,47,29.89,10.0,Variable,3.5,-,N/A,,Clear,0,2013-05-29 14:56:00
8:56 AM,57.0,35.1,44,29.91,10.0,Variable,3.5,-,N/A,,Clear,0,2013-05-29 15:56:00
9:56 AM,61.0,36.0,39,29.92,10.0,Variable,5.8,-,N/A,,Clear,0,2013-05-29 16:56:00
10:56 AM,62.1,35.1,37,29.92,10.0,Variable,6.9,-,N/A,,Clear,0,2013-05-29 17:56:00
11:56 AM,64.9,36.0,34,29.92,10.0,Calm,Calm,-,N/A,,Clear,0,2013-05-29 18:56:00
12:56 PM,66.9,36.0,32,29.91,10.0,Variable,3.5,-,N/A,,Clear,0,2013-05-29 19:56:00
1:56 PM,69.1,37.0,31,29.91,10.0,Variable,3.5,-,N/A,,Scattered Clouds,0,2013-05-29 20:56:00
2:56 PM,69.1,34.0,27,29.90,10.0,Variable,4.6,-,N/A,,Clear,0,2013-05-29 21:56:00
3:56 PM,70.0,32.0,25,29.91,10.0,Variable,5.8,-,N/A,,Clear,0,2013-05-29 22:56:00
4:56 PM,69.1,32.0,25,29.91,10.0,Variable,4.6,-,N/A,,Clear,0,2013-05-29 23:56:00
5:56 PM,66.0,32.0,28,29.91,10.0,Variable,4.6,-,N/A,,Clear,0,2013-05-30 00:56:00
6:56 PM,64.0,32.0,30,29.90,10.0,Variable,5.8,-,N/A,,Clear,0,2013-05-30 01:56:00
7:56 PM,61.0,32.0,34,29.92,10.0,Variable,5.8,-,N/A,,Clear,0,2013-05-30 02:56:00
8:56 PM,57.0,34.0,42,29.95,10.0,Variable,4.6,-,N/A,,Clear,0,2013-05-30 03:56:00
9:56 PM,54.0,35.1,49,29.99,10.0,Variable,6.9,-,N/A,,Clear,0,2013-05-30 04:56:00
10:56 PM,51.1,36.0,56,30.01,10.0,Variable,3.5,-,N/A,,Clear,0,2013-05-30 05:56:00
11:56 PM,48.9,35.1,59,30.02,10.0,Calm,Calm,-,N/A,,Clear,0,2013-05-30 06:56:00